Regional Weather Roundup
Issued by NWS

Home | Current Version | Previous Version | Text Only | Print | Product List | Glossary Off
Versions: 1 2 3 4 5 6 7 8 9 10 11 12 13 14 15 16 17 18 19 20 21 22 23 24 25 26 27 28 29 30 31 32 33 34 35 36 37 38 39 40 41 42 43 44 45 46 47 48 49 50

000
ASUS43 KLMK 310602
RWRKY
KENTUCKY REGIONAL WEATHER ROUNDUP
NATIONAL WEATHER SERVICE LOUISVILLE KY
200 AM EDT SUN AUG 31 2014

NOTE "FAIR" INDICATES FEW OR NO CLOUDS BELOW 12,000 FEET
WITH NO SIGNIFICANT WEATHER AND/OR OBSTRUCTIONS TO VISIBILITY.

KYZ001>023-026-027-061>063-070>075-310700-
WESTERN AND SOUTH CENTRAL KENTUCKY

CITY           SKY/WX    TMP DP  RH WIND       PRES   REMARKS
PADUCAH        MOCLDY    74  71  91 S5        29.99R
HENDERSON      FAIR      72  68  88 S5        29.99F
OWENSBORO      NOT AVBL
HOPKINSVILLE   MOCLDY    73  73 100 S7        30.03R
BOWLING GREEN  LGT RAIN  73  71  93 S8        30.06R
GLASGOW        LGT RAIN  71  71 100 S5        30.07R
$$

KYZ024-025-028>034-038-045-046-053-310700-
NORTH CENTRAL KENTUCKY

CITY           SKY/WX    TMP DP  RH WIND       PRES   REMARKS
LOUISVILLE/SDF LGT RAIN  74  71  91 SE6       30.03S
LOUISVILLE/LOU FAIR      73  71  93 S3        30.04S
FORT KNOX      FAIR      72  72 100 SE6       30.02F
$$

KYZ035>037-039>044-047>052-055>060-089>105-310700-
NORTHEAST KENTUCKY

CITY           SKY/WX    TMP DP  RH WIND       PRES   REMARKS
LEXINGTON      LGT RAIN  74  70  87 S10G21    30.08F
COVINGTON      CLOUDY    72  69  90 SW8       30.06R FOG
FRANKFORT      LGT RAIN  73  71  93 S5        30.06F FOG
$$

KYZ054-064>069-076>088-106>120-310700-
SOUTHEAST KENTUCKY

CITY           SKY/WX    TMP DP  RH WIND       PRES   REMARKS
JACKSON        RAIN      70  68  93 VRB3      30.14S FOG
LONDON         LGT RAIN  71  68  90 E6        30.10F
SOMERSET       FAIR      70  70 100 S7        30.11R
MIDDLESBORO    DRIZZLE   70  70  99 CALM      30.15F
MONTICELLO     FAIR      71  69  93 S7        30.11R
$$




USA.gov is the U.S. government's official web portal to all federal, state and local government web resources and services.